This is the latest recevied weather packets stored in our database for station/object N5SNT-2. If no packets are shown the sender has not sent any weather packets the latest 10 day(s).
| Time | Temp. | Humidity | Pressure | Rain* | Wind** | Luminosity | Snow |
|---|---|---|---|---|---|---|---|
| 1777744344 | 20.56° C | 51% | 1025 hPa | 0 mm | - | 933 W/m² | - |
| 1777744043 | 20° C | 51% | 1025 hPa | 0 mm | - | 928 W/m² | - |
| 1777743743 | 20.56° C | 55% | 1025 hPa | 0 mm | - | 926 W/m² | - |
| 1777743444 | 20.56° C | 55% | 1025 hPa | 0 mm | - | 922 W/m² | - |
| 1777743144 | 20° C | 51% | 1025 hPa | 0 mm | - | 915 W/m² | - |
| 1777742844 | 20° C | 49% | 1025 hPa | 0 mm | - | 908 W/m² | - |
| 1777742544 | 20° C | 51% | 1025 hPa | 0 mm | - | 899 W/m² | - |
| 1777742244 | 20° C | 55% | 1025 hPa | 0 mm | - | 893 W/m² | - |
| 1777741943 | 20° C | 52% | 1025 hPa | 0 mm | - | 882 W/m² | - |
| 1777741643 | 20° C | 53% | 1025 hPa | 0 mm | - | 870 W/m² | - |
| 1777741344 | 20° C | 49% | 1025 hPa | 0 mm | - | 862 W/m² | - |
| 1777741043 | 20° C | 52% | 1025 hPa | 0 mm | - | 850 W/m² | - |
| 1777740744 | 19.44° C | 49% | 1026 hPa | 0 mm | - | 844 W/m² | - |
| 1777740443 | 20° C | 53% | 1025 hPa | 0 mm | - | 835 W/m² | - |
| 1777740143 | 20° C | 54% | 1025 hPa | 0 mm | - | 827 W/m² | - |
| 1777739844 | 19.44° C | 55% | 1025 hPa | 0 mm | - | 816 W/m² | - |
| 1777739543 | 18.89° C | 55% | 1026 hPa | 0 mm | - | 803 W/m² | - |
| 1777739244 | 18.89° C | 56% | 1026 hPa | 0 mm | - | 793 W/m² | - |
| 1777738943 | 18.89° C | 59% | 1025 hPa | 0 mm | - | 782 W/m² | - |
| 1777738643 | 19.44° C | 56% | 1026 hPa | 0 mm | - | 766 W/m² | - |
| 1777738344 | 18.33° C | 57% | 1025 hPa | 0 mm | - | 751 W/m² | - |
| 1777738043 | 18.89° C | 63% | 1025 hPa | 0 mm | - | 736 W/m² | - |
| 1777737744 | 18.33° C | 58% | 1025 hPa | 0 mm | - | 721 W/m² | - |
| 1777737444 | 18.33° C | 58% | 1025 hPa | 0 mm | - | 706 W/m² | - |
| 1777737145 | 17.78° C | 61% | 1025 hPa | 0 mm | - | 690 W/m² | - |
* Rain latest hour (hover to see other rain measurements)
** Current wind speed in m/s (hover to see current wind gust speed)